Wind_Speed
50 52 55 58 58 56 55 54 54 52 52 54 54 53 53 54 52 49 28 28 18 3 2 2 3 1 1 3 5 4 3 1 1 4 3 3 3 6 4 5 6 7 6 4 3 3 9 3 2 5 1 0 2 2
46 48 52 56 57 54 54 53 53 53 54 55 53 52 52 51 52 50 12 42 20 4 2 2 2 4 4 0 4 1 1 5 4 2 2 2 3 3 3 3 2 3 6 4 7 4 3 4 3 3 3 1 3 6
42 40 47 54 53 53 52 53 53 53 55 55 55 51 53 52 51 51 23 38 20 4 2 2 3 3 3 3 2 3 2 2 1 1 2 2 4 2 4 6 4 2 3 3 2 5 5 4 1 3 8 10 11 11
43 43 44 47 50 51 51 52 52 53 54 55 56 52 52 51 51 49 21 38 34 3 2 3 1 3 5 7 4 6 1 1 3 1 1 3 3 3 2 2 4 4 7 5 2 3 5 3 6 10 12 11 13 13
45 44 45 47 49 51 50 50 51 52 54 54 53 51 51 51 49 46 25 39 40 13 6 3 2 5 3 8 12 11 9 2 2 1 2 3 1 2 1 1 3 4 5 5 5 7 5 6 9 10 12 11 10 10
45 46 45 46 49 49 49 50 52 52 52 53 53 51 50 49 48 29 3 35 42 35 4 3 2 1 3 2 4 5 7 2 0 2 2 1 1 3 4 4 5 9 7 5 4 10 13 11 10 11 13 11 12 12
46 46 46 46 47 49 49 49 52 51 52 51 51 51 50 49 44 12 6 15 43 30 3 2 1 1 3 4 2 2 2 2 2 1 2 2 2 3 2 3 4 5 8 15 17 16 8 8 7 10 13 15 17 15
47 46 44 44 44 47 47 50 50 50 52 51 49 49 48 47 28 10 8 37 47 13 3 3 2 3 6 2 2 1 1 1 1 2 1 2 2 2 4 6 8 13 15 13 7 7 11 15 13 9 13 13 9 7
47 46 44 43 45 44 47 48 48 50 52 51 50 47 43 19 4 9 24 43 31 6 5 3 7 5 5 2 2 1 1 2 2 2 2 3 2 5 6 7 13 16 8 15 13 14 13 13 11 8 8 7 8 6
45 46 44 45 46 47 49 50 51 50 50 48 44 7 3 13 42 36 12 2 2 1 2 3 3 4 4 3 2 3 2 2 2 4 4 3 3 8 5 8 13 10 16 18 17 10 11 11 10 8 7 7 7 7
49 45 46 47 45 51 50 50 52 51 52 8 3 2 16 48 11 3 4 5 3 5 4 4 4 6 2 3 3 3 3 3 3 4 6 3 4 4 7 16 15 14 13 7 9 11 9 13 12 10 8 10 10 6
47 47 48 47 50 49 50 53 57 28 12 12 18 13 7 4 3 5 4 4 4 6 6 7 5 4 4 3 3 4 4 3 5 6 3 3 3 12 15 15 15 14 12 12 17 15 16 16 15 12 11 10 10 5
44 47 46 47 50 47 49 53 39 43 47 28 6 3 3 1 5 8 7 4 5 5 5 5 6 4 3 2 2 4 6 6 4 2 4 4 9 12 15 15 14 15 18 18 15 17 17 16 16 15 10 11 10 3
45 46 46 50 49 47 49 50 52 34 12 3 4 6 4 4 4 4 6 7 5 5 11 12 6 4 3 3 3 4 4 3 4 5 6 6 16 16 14 14 16 15 14 15 14 17 16 15 13 11 11 12 7 6
45 47 45 46 49 51 57 49 37 19 4 3 2 5 3 2 2 3 4 5 4 11 12 7 3 3 3 4 4 4 5 5 7 5 4 9 16 17 17 16 15 14 12 12 16 14 16 16 14 12 15 10 10 12
44 46 49 55 53 41 34 38 14 6 3 2 2 4 1 3 1 3 2 3 7 12 8 4 4 4 4 3 5 7 6 7 4 3 5 13 17 16 16 15 13 17 18 17 17 17 16 17 15 17 12 12 12 9
26 16 48 44 37 34 28 14 6 4 2 3 1 1 3 2 4 4 4 5 11 14 7 4 7 7 4 4 5 5 5 3 5 7 10 15 17 16 14 13 17 19 18 18 18 17 17 17 19 16 11 12 8 6
37 45 45 39 35 26 9 9 3 2 1 2 1 2 2 2 6 4 3 13 9 7 4 5 5 6 6 6 4 3 2 4 6 9 10 12 14 13 19 15 20 21 19 19 19 17 17 18 15 11 12 11 7 6
37 42 35 25 15 7 3 2 2 3 1 1 1 2 2 3 2 6 8 9 5 2 4 2 4 4 4 3 3 7 8 7 10 9 9 12 19 19 20 21 21 19 20 19 18 15 16 18 16 15 13 10 8 6
33 29 21 16 10 3 3 2 3 2 2 1 2 3 2 3 3 8 7 4 3 2 0 3 2 1 2 2 2 9 9 11 12 12 9 7 15 21 20 21 17 20 18 18 18 18 15 14 14 13 12 10 9 7
23 18 15 11 4 4 3 2 2 2 2 2 1 2 3 2 3 3 3 2 2 1 2 1 1 2 3 6 10 9 11 12 10 10 13 9 12 18 18 17 21 18 16 15 13 14 16 15 17 15 12 9 7 6
9 9 4 4 3 2 2 1 4 3 2 2 2 3 3 2 2 2 2 2 1 1 1 2 2 4 8 10 9 15 17 19 19 17 20 22 8 8 10 17 18 12 14 17 16 16 17 17 17 14 11 9 7 5
11 4 3 3 3 3 0 3 2 2 3 3 2 3 2 2 2 2 2 0 1 2 3 4 4 11 10 17 21 18 18 20 8 11 16 13 15 17 17 18 20 17 12 16 21 20 21 19 16 13 11 9 9 5
2 3 2 2 2 2 1 1 1 3 3 2 3 4 3 3 3 2 2 1 2 1 3 6 7 8 9 9 6 6 11 17 16 14 16 18 8 11 18 19 21 22 22 23 21 21 21 20 16 13 12 10 9 6
4 3 3 2 1 3 3 2 2 3 3 2 4 2 2 2 3 2 4 3 2 2 2 4 4 5 7 4 5 8 17 19 13 9 14 18 18 16 15 18 18 21 22 23 22 22 22 19 15 14 13 11 10 8
3 3 2 2 0 3 3 4 3 4 4 3 2 2 2 3 3 3 3 4 3 4 5 7 7 6 4 4 6 4 10 18 20 11 14 22 22 18 9 5 3 13 22 24 25 24 22 20 18 17 14 11 9 8
2 1 1 1 1 3 3 3 2 4 4 4 3 2 3 4 2 2 0 1 3 5 13 16 13 7 7 8 15 16 20 20 16 16 17 19 20 23 25 21 14 22 23 24 22 22 23 22 21 18 14 12 10 9
1 3 3 3 4 2 4 3 3 2 3 2 3 3 4 6 3 1 1 1 17 22 19 15 17 21 20 22 26 26 22 20 19 20 19 14 14 16 20 20 16 14 19 20 18 18 18 18 19 17 15 13 10 9
3 2 4 6 5 5 4 3 2 2 2 2 4 3 3 2 2 2 4 12 22 24 14 12 14 21 23 24 23 24 26 27 16 7 6 3 1 9 16 19 14 15 17 18 16 15 14 13 14 13 11 9 8 8
2 2 4 3 4 4 4 4 2 2 2 2 3 3 3 2 9 15 14 13 12 9 15 19 24 21 14 15 14 15 19 20 20 15 6 5 11 15 18 18 18 19 20 19 17 15 13 13 12 11 10 9 9 9
2 3 4 3 3 2 5 7 8 6 4 5 4 5 3 2 6 23 21 11 14 17 18 14 14 18 20 17 14 9 3 15 12 9 5 2 13 15 20 20 18 19 19 18 17 15 14 13 11 10 10 10 10 11
3 2 4 3 3 1 1 3 3 4 3 4 3 3 3 4 4 4 16 8 10 9 8 12 14 11 12 15 15 11 4 13 15 12 9 6 10 14 19 20 19 18 18 17 15 14 12 10 10 9 9 10 10 11
3 3 4 3 3 2 2 4 3 2 4 3 4 3 2 3 3 2 7 12 10 13 16 17 15 13 11 10 9 6 5 5 9 10 8 9 11 13 16 17 17 17 17 15 14 12 11 11 10 11 11 12 12 13
Wind_Direction
226 225 222 219 215 211 212 211 211 210 210 210 211 210 207 208 207 197 198 201 190 147 227 26 5 336 29 134 153 183 104 6 85 185 200 213 222 215 199 204 193 191 183 202 203 243 269 146 101 171 217 69 290 340
225 226 223 215 209 207 207 207 208 208 209 209 209 208 208 208 208 197 198 199 202 131 179 138 115 99 59 145 121 143 240 179 178 155 198 180 197 187 178 248 115 211 202 187 200 214 124 51 102 299 337 196 19 60
219 219 211 201 203 203 203 203 204 204 207 206 207 204 205 206 208 199 193 183 186 116 75 126 204 170 129 119 145 133 248 313 25 17 148 272 232 143 199 230 173 279 153 221 138 179 141 114 32 43 63 90 76 68
211 209 208 203 201 202 201 200 201 201 203 205 204 203 202 203 204 197 183 181 186 107 173 246 121 212 190 223 224 211 37 197 82 59 209 205 201 188 233 301 202 172 151 170 251 281 113 47 82 103 91 92 88 79
207 203 202 202 203 202 200 199 199 198 200 202 200 199 199 198 199 193 175 177 184 169 181 148 131 192 209 235 230 196 206 210 176 168 177 232 144 138 345 352 227 202 170 177 220 167 105 106 102 104 100 92 86 92
202 199 198 199 199 198 197 197 196 194 194 196 195 193 194 195 188 160 132 182 186 191 105 145 334 96 84 150 181 207 200 138 246 188 202 221 1 196 201 220 238 202 176 171 160 112 111 113 98 106 103 99 92 85
194 194 194 195 194 195 194 193 191 191 189 190 188 188 189 186 172 172 175 168 184 178 97 114 179 156 120 116 92 127 82 129 132 187 224 182 221 200 233 221 226 167 166 121 121 112 108 169 130 120 112 108 101 92
186 184 186 190 190 188 187 184 184 185 185 182 181 182 177 170 160 143 172 171 166 132 111 135 126 154 181 157 138 204 116 120 157 150 219 216 174 218 250 224 136 119 116 119 114 80 120 123 119 116 116 116 110 104
171 175 177 179 179 179 178 177 179 176 171 170 170 170 155 154 98 150 154 157 160 127 161 140 150 185 161 126 124 131 193 184 143 173 222 183 186 224 222 175 159 152 138 136 116 115 122 126 128 127 129 127 118 113
165 166 169 169 171 173 169 170 166 161 163 161 158 117 121 138 129 120 129 86 88 120 103 125 119 142 160 148 144 141 176 187 186 223 140 223 246 243 262 194 156 138 138 137 123 131 138 139 143 142 134 135 129 103
160 160 162 163 163 161 160 163 164 159 155 117 109 98 133 133 110 97 141 157 130 163 164 155 144 134 192 135 151 194 177 168 210 217 180 219 255 197 147 139 140 142 159 150 117 132 145 145 144 139 138 137 113 127
152 153 156 158 157 158 157 154 155 145 124 133 116 115 125 93 96 138 159 143 159 188 159 140 149 134 165 155 123 173 188 171 233 139 156 241 225 153 145 139 133 134 132 122 126 126 130 133 139 143 133 134 168 186
149 149 153 157 153 156 157 152 146 124 115 119 80 102 113 128 129 170 161 136 132 147 159 146 123 130 125 157 128 175 196 214 112 158 227 219 150 156 150 133 126 136 135 126 124 125 128 138 142 136 144 173 174 162
147 144 146 149 144 141 139 134 129 124 119 107 118 118 168 153 200 181 158 146 167 149 145 149 125 136 146 155 155 187 190 140 203 226 229 167 171 158 144 137 139 148 141 138 137 138 142 145 138 154 168 163 167 152
141 145 139 145 148 136 134 132 137 129 76 102 131 130 165 176 186 160 114 108 146 145 143 129 86 114 153 159 193 164 179 222 218 226 200 175 161 149 142 146 146 145 144 141 144 146 142 148 149 150 152 151 159 146
123 120 123 129 129 129 135 145 141 86 70 110 127 98 94 89 38 77 110 110 147 148 125 84 138 164 194 177 173 207 193 218 223 193 143 145 150 147 143 147 148 147 146 144 149 146 153 155 149 146 149 158 150 142
102 117 120 121 126 128 121 106 57 58 52 107 148 115 149 111 159 151 135 144 155 153 152 146 165 195 124 189 207 199 212 212 144 136 144 148 149 145 140 139 144 145 145 146 142 157 162 155 152 146 151 168 153 137
113 126 128 123 115 101 61 42 74 80 166 217 162 192 167 135 135 127 145 153 157 177 141 168 148 197 193 194 215 171 151 118 119 130 131 141 138 136 142 141 145 147 144 147 161 159 153 149 156 165 159 164 158 146
131 130 126 123 117 93 97 100 182 139 160 173 114 99 74 90 50 126 144 149 77 106 117 167 192 196 210 194 160 137 140 135 128 123 126 132 135 135 136 138 139 142 148 158 158 154 156 167 174 170 169 175 160 144
124 130 125 106 102 79 91 96 138 91 103 113 57 78 95 100 112 117 111 103 93 90 286 222 229 254 225 215 138 138 135 135 132 127 122 119 130 134 141 144 146 148 147 146 150 156 149 154 168 172 177 168 153 145
107 106 109 98 67 62 96 133 93 109 88 68 54 72 66 68 99 102 90 93 84 192 236 282 335 357 57 87 118 129 133 147 154 150 145 140 142 138 137 139 142 147 147 149 148 148 157 167 178 180 175 161 144 138
116 107 94 63 74 49 95 245 142 142 92 102 74 66 70 53 52 63 121 63 42 248 211 120 100 111 100 104 113 116 120 103 104 107 116 131 139 144 149 152 148 149 153 161 157 165 179 184 180 179 173 159 158 158
136 129 63 69 74 61 59 341 88 106 106 114 112 85 89 128 135 141 73 173 54 12 64 83 74 88 100 101 99 96 108 115 117 127 135 128 135 139 142 151 157 149 145 171 185 183 181 181 181 179 173 170 177 170
115 63 74 97 107 163 127 112 90 106 106 133 109 114 134 138 147 76 122 121 87 76 91 119 122 111 96 98 105 114 116 124 120 120 136 136 130 137 153 158 172 178 184 184 185 186 184 183 183 182 185 188 189 188
87 337 95 28 17 91 87 54 48 80 110 116 96 101 176 157 102 108 166 151 120 124 118 121 122 129 132 114 108 107 141 142 144 141 144 138 128 129 140 167 178 187 187 179 179 184 185 186 190 194 197 200 200 204
79 297 82 177 279 116 171 123 147 137 122 87 97 101 71 83 75 169 196 172 134 159 167 155 143 125 106 125 138 140 150 159 139 125 143 163 158 155 150 142 140 192 198 199 190 188 189 193 197 201 204 208 209 213
95 281 114 80 181 103 79 60 85 97 105 136 162 84 79 80 171 215 325 258 117 146 162 154 143 135 137 127 133 144 155 161 154 157 162 174 183 187 182 175 189 202 198 201 205 204 199 200 204 207 210 214 218 225
150 33 81 342 62 29 115 59 81 128 145 138 87 81 117 171 167 52 38 74 139 145 147 145 151 152 141 145 149 143 133 132 129 140 146 155 175 189 200 209 219 206 199 201 209 212 215 213 210 208 215 221 225 228
40 29 74 31 28 35 40 53 66 65 41 91 114 130 114 56 352 351 36 124 135 127 111 105 112 140 137 143 147 149 146 145 125 121 126 155 48 194 208 211 210 200 197 197 201 210 214 213 211 216 223 225 229 235
22 47 88 62 59 39 17 9 38 358 25 113 106 113 79 49 9 54 80 102 120 130 144 148 148 143 141 136 131 140 159 167 180 162 160 187 202 198 197 199 200 195 192 192 190 185 187 192 194 199 209 222 226 228
71 64 70 56 79 36 86 85 69 57 34 62 46 83 81 115 50 37 38 72 109 120 123 121 127 149 146 145 148 137 157 186 184 178 172 277 209 203 197 190 187 188 191 195 196 197 193 196 207 217 218 223 237 250
44 103 113 93 98 32 29 56 48 59 40 63 50 48 49 45 53 10 11 47 95 92 103 138 138 137 157 156 153 130 143 193 196 200 208 215 194 191 186 187 191 195 196 196 194 195 196 201 210 224 235 245 261 271
46 57 66 88 55 78 3 89 76 79 30 34 30 44 75 113 109 282 22 51 93 109 114 112 114 118 122 128 141 127 76 135 174 182 180 183 185 176 176 182 188 191 194 195 197 202 210 221 236 244 254 267 268 272
Height
570 578 586 595 605 616 627 637 647 657 666 676 684 694 703 712 722 733 739 748 753 761 766 765 766 763 762 765 775 785 786 790 794 790 786 782 785 776 773 767 775 783 792 793 787 779 768 767 769 776 777 773 774 776
558 564 570 580 591 603 615 626 637 647 657 666 676 685 696 705 715 728 735 743 750 755 766 766 767 767 767 768 771 778 777 777 775 781 783 784 780 778 772 765 767 772 771 777 778 772 771 775 776 775 775 777 777 780
547 553 559 568 580 593 604 616 627 638 647 657 668 678 688 699 710 719 728 736 748 756 766 767 768 767 768 770 770 773 776 776 772 775 775 776 772 773 766 762 763 769 767 771 774 772 774 776 777 778 779 783 786 788
537 544 553 561 571 583 595 607 618 629 639 649 660 671 682 692 704 716 719 728 741 750 759 769 767 768 768 769 769 773 775 776 775 777 777 775 772 772 768 765 761 764 767 771 776 777 776 779 778 783 786 789 791 793
527 536 545 555 565 576 587 598 609 620 631 642 654 665 677 688 700 714 717 725 734 744 754 766 766 767 768 768 772 770 774 776 775 777 778 772 775 777 781 778 771 763 763 766 762 764 775 784 786 788 790 793 794 795
517 527 538 548 557 568 579 590 602 614 625 636 648 660 672 684 698 706 715 722 729 734 751 761 766 764 765 765 766 769 771 773 774 774 774 774 774 773 773 765 754 753 754 755 760 765 776 785 790 792 791 795 798 798
509 520 531 541 551 562 573 585 596 608 620 632 644 656 669 681 690 695 702 703 719 733 746 761 763 764 765 768 770 772 772 772 773 777 775 775 775 772 768 758 750 749 750 760 764 771 785 785 790 793 794 797 798 801
502 514 526 536 547 558 569 581 593 604 617 629 642 655 668 679 689 695 699 702 718 732 742 756 761 762 763 765 766 769 770 771 773 772 776 772 772 769 759 748 751 754 756 763 767 767 773 784 791 794 796 798 801 803
496 511 523 534 545 556 567 578 591 602 614 627 642 656 667 673 684 691 699 709 717 726 737 750 749 756 759 761 764 768 769 768 770 767 769 770 764 758 741 742 749 753 751 766 772 775 780 785 791 795 796 799 801 804
499 511 523 534 545 555 566 578 589 599 614 629 643 649 663 669 681 693 707 712 716 722 731 741 743 746 751 755 760 764 765 763 761 763 766 761 753 738 736 735 744 752 757 762 770 780 783 787 790 793 795 798 799 799
502 514 526 536 546 557 567 579 590 603 616 623 639 651 658 666 677 692 700 702 712 717 722 733 733 738 748 754 757 759 761 762 759 757 758 755 745 733 731 735 742 752 760 762 762 768 775 779 786 791 795 797 797 801
507 519 529 540 549 559 571 581 592 601 613 625 632 649 657 665 681 683 692 699 700 707 710 718 726 734 742 745 749 752 754 754 743 751 759 746 723 725 732 737 743 753 761 764 766 770 776 781 785 790 791 794 799 801
517 526 535 545 555 566 576 587 597 609 616 631 642 652 653 668 670 673 676 683 688 694 703 711 722 728 738 740 743 745 744 746 742 751 736 713 719 726 730 736 748 757 760 763 769 773 777 783 786 787 792 796 798 798
526 534 543 553 562 571 580 590 603 613 621 632 641 655 654 666 664 664 662 672 680 689 693 698 715 721 729 734 737 736 732 737 735 726 706 711 713 719 728 735 746 755 759 764 769 774 779 783 784 789 793 795 796 798
535 543 552 562 571 581 591 599 609 614 625 635 637 643 653 656 661 660 661 669 675 679 686 700 712 717 725 729 726 726 728 722 706 694 696 698 708 717 724 736 746 752 759 764 770 774 778 782 786 789 792 794 797 797
544 553 562 570 581 588 596 605 611 618 630 637 640 648 653 655 662 662 665 668 667 675 684 695 707 712 710 709 713 714 705 690 684 686 690 699 709 716 724 735 744 751 757 763 769 773 779 783 785 788 792 794 795 795
556 564 574 580 588 592 598 607 614 626 629 632 641 642 642 644 643 649 652 658 662 666 673 688 692 691 701 701 699 692 685 680 683 687 690 698 706 715 726 736 744 750 757 763 768 775 779 781 784 789 793 795 795 794
566 575 581 587 592 600 608 618 628 632 632 634 633 638 639 641 640 644 649 652 661 664 673 675 682 689 684 674 672 674 680 682 684 687 694 705 712 720 727 735 744 750 756 763 770 774 777 779 784 788 791 793 793 793
576 582 590 596 601 609 621 628 631 630 634 635 635 635 635 640 642 642 646 653 657 663 667 672 667 666 664 664 663 669 675 678 688 697 706 711 715 722 731 739 745 751 758 764 769 772 775 779 783 787 790 791 792 792
587 593 598 602 605 612 619 625 627 628 630 635 636 638 643 642 646 649 654 656 660 664 666 661 658 660 660 661 659 665 675 683 690 701 713 719 722 727 733 739 746 753 759 764 768 772 775 780 784 787 789 789 789 790
596 601 604 607 611 614 620 624 627 629 631 634 637 638 644 645 648 652 657 660 664 664 663 664 665 665 662 661 665 670 678 684 687 688 700 718 726 730 737 743 748 753 758 763 767 771 775 780 783 786 787 787 787 788
600 604 608 611 615 618 621 623 625 629 633 636 638 642 646 650 653 656 659 661 662 665 665 665 668 670 670 672 675 678 683 688 694 702 711 718 725 732 738 742 748 753 757 761 765 770 775 779 782 784 785 785 786 787
605 607 609 612 618 621 627 623 623 625 632 638 641 645 651 655 657 658 663 663 664 667 665 669 672 673 676 680 682 687 690 694 703 710 716 721 727 732 737 742 746 751 756 761 765 770 774 777 780 782 782 783 784 785
603 608 614 616 618 628 625 626 623 626 632 634 637 645 649 652 656 660 661 665 669 671 673 675 675 679 683 687 691 695 699 702 707 714 719 722 728 735 738 742 746 750 755 760 765 769 772 775 778 779 781 781 782 782
611 621 620 625 622 628 630 633 628 629 639 640 644 653 654 652 661 665 665 665 669 676 677 677 679 681 684 692 696 699 702 704 709 716 721 722 728 736 741 744 748 752 756 760 764 767 770 773 775 777 778 779 779 779
620 621 621 622 625 621 623 632 637 641 644 649 649 648 651 661 672 661 661 661 666 672 676 676 679 684 689 690 695 701 703 707 711 715 721 723 727 732 739 744 749 753 755 758 761 764 767 770 772 774 775 776 776 776
625 625 618 618 618 618 628 629 627 633 649 657 654 664 669 685 669 660 660 659 664 669 673 676 678 681 688 694 698 702 706 709 710 714 720 725 730 733 736 742 746 748 752 756 758 760 763 766 769 770 771 772 773 773
618 616 623 628 627 626 641 642 643 645 642 641 649 675 667 672 664 662 662 662 664 669 675 679 682 685 690 694 698 702 707 710 713 719 724 729 732 735 738 742 745 748 751 754 757 759 761 764 765 766 768 769 770 771
622 622 626 642 637 636 636 640 636 637 639 645 661 655 658 663 666 664 664 663 665 670 678 683 688 690 694 698 701 704 705 709 715 725 730 735 734 735 738 741 744 747 750 753 756 759 761 762 762 764 765 766 767 768
629 627 639 653 650 641 643 642 644 646 646 646 649 656 663 669 670 667 667 669 672 676 680 684 688 691 695 699 704 708 710 712 715 718 725 729 728 732 735 738 741 745 748 752 755 757 758 759 760 762 763 764 765 766
629 635 643 647 647 653 652 651 650 651 652 655 659 663 666 671 674 676 676 678 678 680 684 689 692 694 696 700 703 708 713 714 717 719 722 725 727 730 734 737 741 744 747 750 752 754 755 756 758 759 760 761 763 764
641 649 653 657 652 654 654 658 658 660 662 662 666 666 672 681 688 688 687 685 685 686 688 690 693 698 700 702 705 708 709 713 717 720 723 725 727 730 733 736 740 744 747 749 751 752 753 754 756 757 758 759 760 760
649 653 657 659 661 657 659 662 666 670 673 675 678 682 691 696 697 695 692 690 690 690 691 693 697 700 703 706 708 710 712 714 718 721 723 726 729 731 733 736 740 743 746 747 749 750 751 752 754 755 756 756 756 757